BOX628 EDDF-UAAA

Flight info

Callsign BOX628
Flight time N/A
Altitude 31000
Route SULUS7S SULUS Z650 VEMUT DCT ETVIS DCT BUDEX DCT TEGRI DCT UDROS UN743 GAKSU UT310 SIN UN644 ROLIN DCT FOQUS DCT LAGAS DCT DISKA M737 VERCA M747 LUSAL N199 RASAM L88 METKA B476 TIMGA A480 OTBOR/K0932F310 N147 GENDI Z621 ARBOL M610 TOMGO Z370 EKLAT EKLAT2D
Aircraft B77L/H-SDE2E3GHIJ4J5M1P2RWXYZ/LB1D1

Departure

Time 2026-05-04 01:13
Airport Frankfurt Main Airport (EDDF)

Arrival

Time N/A
Airport Almaty International Airport (UAAA)
Time Latitude Longitude Altitude Speed Heading
2026-05-04 00:35 50.03780 8.53366 348 ft 0 kts 339°
2026-05-04 01:02 50.03764 8.53375 357 ft 4 kts 339°
2026-05-04 01:03 50.03740 8.53390 357 ft 3 kts 341°
2026-05-04 01:03 50.03719 8.53404 357 ft 4 kts 314°
2026-05-04 01:03 50.03707 8.53438 357 ft 4 kts 278°
2026-05-04 01:03 50.03707 8.53479 357 ft 4 kts 257°
2026-05-04 01:04 50.03711 8.53499 357 ft 1 kts 249°
2026-05-04 01:08 50.03705 8.53474 359 ft 5 kts 249°
2026-05-04 01:08 50.03686 8.53395 354 ft 10 kts 249°
2026-05-04 01:08 50.03655 8.53266 353 ft 15 kts 249°
2026-05-04 01:09 50.03615 8.53102 355 ft 17 kts 250°
2026-05-04 01:09 50.03569 8.53056 352 ft 7 kts 183°
2026-05-04 01:09 50.03513 8.53012 351 ft 10 kts 230°
2026-05-04 01:09 50.03484 8.52917 347 ft 10 kts 248°
2026-05-04 01:10 50.03456 8.52821 335 ft 10 kts 246°
2026-05-04 01:10 50.03429 8.52722 334 ft 10 kts 247°
2026-05-04 01:10 50.03414 8.52663 335 ft 3 kts 249°
2026-05-04 01:10 50.03401 8.52630 334 ft 4 kts 231°
2026-05-04 01:11 50.03380 8.52607 335 ft 4 kts 209°
2026-05-04 01:11 50.03355 8.52596 336 ft 4 kts 190°
2026-05-04 01:11 50.03334 8.52595 337 ft 0 kts 179°
2026-05-04 01:12 50.03255 8.52597 336 ft 36 kts 179°
2026-05-04 01:12 50.02745 8.52598 339 ft 109 kts 179°
2026-05-04 01:12 50.01761 8.52609 336 ft 171 kts 179°
2026-05-04 01:12 50.00460 8.52621 634 ft 191 kts 180°
2026-05-04 01:13 49.99113 8.52640 1144 ft 196 kts 180°
2026-05-04 01:13 49.97741 8.52681 1677 ft 199 kts 176°
2026-05-04 01:13 49.96412 8.53526 1786 ft 219 kts 140°
2026-05-04 01:13 49.95527 8.55502 2073 ft 229 kts 121°
2026-05-04 01:14 49.94783 8.57713 2491 ft 233 kts 121°
2026-05-04 01:14 49.94077 8.60020 2764 ft 243 kts 105°
2026-05-04 01:14 49.93935 8.62711 2881 ft 258 kts 91°
2026-05-04 01:14 49.93877 8.65573 3117 ft 272 kts 94°
2026-05-04 01:15 49.93639 8.68507 3416 ft 277 kts 112°
2026-05-04 01:15 49.92555 8.70927 3796 ft 275 kts 146°
2026-05-04 01:15 49.90988 8.72605 4271 ft 276 kts 149°
2026-05-04 01:15 49.89424 8.74308 4844 ft 279 kts 148°
2026-05-04 01:16 49.88004 8.76404 5309 ft 285 kts 124°
2026-05-04 01:16 49.87079 8.79145 5712 ft 289 kts 120°
2026-05-04 01:16 49.86128 8.81902 6270 ft 291 kts 122°
2026-05-04 01:16 49.85143 8.84628 6873 ft 290 kts 123°
2026-05-04 01:17 49.84152 8.87353 7418 ft 292 kts 123°
2026-05-04 01:17 49.83150 8.90104 7922 ft 295 kts 123°
2026-05-04 01:17 49.82154 8.92840 8448 ft 297 kts 123°
2026-05-04 01:17 49.81139 8.95630 8975 ft 298 kts 123°
2026-05-04 01:18 49.80116 8.98443 9499 ft 301 kts 123°
2026-05-04 01:18 49.79070 9.01318 10015 ft 304 kts 123°
2026-05-04 01:18 49.78021 9.04191 10368 ft 313 kts 123°
2026-05-04 01:18 49.76916 9.07202 10510 ft 331 kts 123°
2026-05-04 01:19 49.75866 9.10460 10600 ft 348 kts 111°
2026-05-04 01:19 49.75224 9.14179 10762 ft 367 kts 105°
2026-05-04 01:19 49.74682 9.18083 10905 ft 385 kts 104°
2026-05-04 01:19 49.74085 9.22185 11204 ft 397 kts 105°
2026-05-04 01:20 49.73434 9.26369 11716 ft 404 kts 106°
2026-05-04 01:20 49.72755 9.30601 12393 ft 407 kts 106°
2026-05-04 01:20 49.72067 9.34846 13156 ft 408 kts 106°
2026-05-04 01:20 49.71373 9.39104 13856 ft 410 kts 107°
2026-05-04 01:21 49.70670 9.43396 14376 ft 414 kts 107°
2026-05-04 01:21 49.69960 9.47727 14864 ft 418 kts 107°
2026-05-04 01:21 49.69241 9.52103 15367 ft 422 kts 107°
2026-05-04 01:21 49.68514 9.56515 15812 ft 427 kts 107°
2026-05-04 01:22 49.67776 9.60986 16237 ft 432 kts 107°
2026-05-04 01:22 49.67111 9.65521 16608 ft 435 kts 99°
2026-05-04 01:22 49.67238 9.70237 16875 ft 447 kts 77°
2026-05-04 01:22 49.68179 9.74793 17212 ft 448 kts 73°
2026-05-04 01:23 49.69092 9.79424 17573 ft 453 kts 75°
2026-05-04 01:23 49.69842 9.84128 18005 ft 450 kts 84°
2026-05-04 01:23 49.69767 9.88948 18254 ft 452 kts 103°
2026-05-04 01:23 49.68995 9.93663 18683 ft 453 kts 109°
2026-05-04 01:24 49.68063 9.98326 19177 ft 456 kts 109°
2026-05-04 01:24 49.67196 10.02977 19681 ft 459 kts 107°
2026-05-04 01:24 49.66425 10.07771 20135 ft 463 kts 105°
2026-05-04 01:24 49.65745 10.12648 20582 ft 467 kts 103°
2026-05-04 01:25 49.65113 10.17655 21018 ft 471 kts 103°
2026-05-04 01:25 49.64519 10.22569 21444 ft 474 kts 102°
2026-05-04 01:25 49.63916 10.27588 21874 ft 478 kts 102°
2026-05-04 01:25 49.63302 10.32650 22286 ft 482 kts 103°
2026-05-04 01:26 49.62674 10.37743 22717 ft 485 kts 103°
2026-05-04 01:26 49.62036 10.42864 23190 ft 487 kts 103°
2026-05-04 01:26 49.61394 10.47993 23652 ft 489 kts 103°
2026-05-04 01:26 49.60743 10.53167 23968 ft 493 kts 103°
2026-05-04 01:27 49.60077 10.58379 24285 ft 496 kts 104°
2026-05-04 01:27 49.59311 10.63577 24623 ft 499 kts 106°
2026-05-04 01:27 49.58474 10.68776 24981 ft 501 kts 107°
2026-05-04 01:27 49.57617 10.73990 25307 ft 504 kts 107°
2026-05-04 01:28 49.56762 10.79237 25617 ft 506 kts 106°
2026-05-04 01:28 49.55914 10.84520 25903 ft 509 kts 106°
2026-05-04 01:28 49.55071 10.89832 26168 ft 513 kts 106°
2026-05-04 01:28 49.54226 10.95182 26420 ft 515 kts 106°
2026-05-04 01:29 49.53374 11.00557 26685 ft 518 kts 106°
2026-05-04 01:29 49.52514 11.05953 26964 ft 520 kts 106°
2026-05-04 01:29 49.51647 11.11355 27296 ft 521 kts 106°
2026-05-04 01:29 49.50777 11.16761 27687 ft 520 kts 106°
2026-05-04 01:30 49.49907 11.22154 28103 ft 519 kts 107°
2026-05-04 01:30 49.49036 11.27537 28511 ft 518 kts 106°
2026-05-04 01:30 49.48158 11.32938 28563 ft 525 kts 106°
2026-05-04 01:31 49.46362 11.43929 28646 ft 535 kts 106°
2026-05-04 01:31 49.45761 11.47603 28749 ft 536 kts 107°
2026-05-04 01:31 49.44850 11.53157 29025 ft 535 kts 107°
2026-05-04 01:31 49.43936 11.58696 29401 ft 533 kts 107°
2026-05-04 01:32 49.43024 11.64201 29763 ft 531 kts 107°
2026-05-04 01:32 49.42111 11.69702 30035 ft 531 kts 107°
2026-05-04 01:32 49.41199 11.75181 30336 ft 529 kts 107°
2026-05-04 01:32 49.40287 11.80644 30598 ft 528 kts 107°
2026-05-04 01:33 49.39372 11.86107 30818 ft 528 kts 107°
2026-05-04 01:33 49.38453 11.91565 30932 ft 530 kts 107°
2026-05-04 01:33 49.37525 11.97057 30983 ft 532 kts 107°
2026-05-04 01:34 49.35661 12.08070 30994 ft 534 kts 107°
2026-05-04 01:34 49.33783 12.19076 31018 ft 533 kts 107°
2026-05-04 01:35 49.31897 12.30070 31008 ft 533 kts 107°
2026-05-04 01:35 49.29997 12.41060 30994 ft 533 kts 107°
2026-05-04 01:36 49.28104 12.51953 31008 ft 532 kts 107°
2026-05-04 01:36 49.26197 12.62873 31013 ft 530 kts 107°
2026-05-04 01:37 49.24283 12.73752 31004 ft 529 kts 107°
2026-05-04 01:37 49.22360 12.84599 31010 ft 528 kts 107°
2026-05-04 01:38 49.20430 12.95427 31010 ft 527 kts 107°
2026-05-04 01:38 49.18495 13.06223 31005 ft 527 kts 107°
2026-05-04 01:39 49.16548 13.17027 31010 ft 527 kts 107°
2026-05-04 01:39 49.14592 13.27820 31002 ft 528 kts 107°
2026-05-04 01:40 49.12622 13.38618 30993 ft 528 kts 107°
2026-05-04 01:40 49.10644 13.49403 31001 ft 528 kts 107°
2026-05-04 01:41 49.08655 13.60184 31007 ft 528 kts 107°
2026-05-04 01:41 49.06654 13.70960 31003 ft 528 kts 108°
2026-05-04 01:42 49.04642 13.81737 30985 ft 528 kts 107°
2026-05-04 01:42 49.02620 13.92509 30997 ft 528 kts 107°
2026-05-04 01:43 49.00588 14.03268 31002 ft 528 kts 107°
2026-05-04 01:43 48.98562 14.13941 31000 ft 528 kts 107°
2026-05-04 01:44 48.96513 14.24680 30994 ft 528 kts 107°
2026-05-04 01:44 48.94213 14.35253 31001 ft 526 kts 114°
2026-05-04 01:45 48.90872 14.45111 31008 ft 524 kts 120°
2026-05-04 01:45 48.85647 14.59715 30988 ft 524 kts 119°
2026-05-04 01:46 48.82198 14.69467 30994 ft 524 kts 119°
2026-05-04 01:46 48.78756 14.79208 30994 ft 524 kts 119°
2026-05-04 01:47 48.75306 14.88936 30996 ft 524 kts 119°
2026-05-04 01:47 48.71844 14.98652 30996 ft 524 kts 119°
2026-05-04 01:48 48.68376 15.08345 30999 ft 524 kts 119°
2026-05-04 01:48 48.64899 15.18027 31004 ft 524 kts 119°
2026-05-04 01:49 48.61411 15.27704 31006 ft 524 kts 119°
2026-05-04 01:49 48.57913 15.37375 31005 ft 524 kts 119°
2026-05-04 01:50 48.54411 15.47018 31005 ft 524 kts 119°
2026-05-04 01:50 48.50895 15.56666 31000 ft 525 kts 119°
2026-05-04 01:51 48.47372 15.66296 31003 ft 525 kts 119°
2026-05-04 01:51 48.43864 15.75850 31004 ft 525 kts 119°
2026-05-04 01:52 48.40319 15.85471 30996 ft 526 kts 119°
2026-05-04 01:52 48.36765 15.95084 30999 ft 526 kts 119°
2026-05-04 01:53 48.33195 16.04700 30997 ft 527 kts 119°
2026-05-04 01:53 48.29616 16.14306 30999 ft 528 kts 118°
2026-05-04 01:54 48.26020 16.23927 31017 ft 528 kts 118°
2026-05-04 01:54 48.22412 16.33540 31029 ft 529 kts 119°
2026-05-04 01:55 48.18799 16.43134 31043 ft 529 kts 119°
2026-05-04 01:55 48.15176 16.52719 31056 ft 528 kts 118°
2026-05-04 01:56 48.11549 16.62282 31048 ft 528 kts 118°
2026-05-04 01:56 48.07919 16.71816 31050 ft 527 kts 119°
2026-05-04 01:57 48.04281 16.81337 31040 ft 527 kts 119°
2026-05-04 01:57 48.00639 16.90837 31062 ft 527 kts 119°
2026-05-04 01:58 47.96988 17.00324 31063 ft 527 kts 119°
2026-05-04 01:58 47.93329 17.09800 31061 ft 527 kts 119°
2026-05-04 01:59 47.89660 17.19266 31080 ft 527 kts 119°
2026-05-04 01:59 47.86012 17.28646 31062 ft 526 kts 119°
2026-05-04 02:00 47.82336 17.38064 31069 ft 525 kts 119°
2026-05-04 02:00 47.78659 17.47455 31089 ft 525 kts 119°
2026-05-04 02:01 47.74975 17.56828 31101 ft 524 kts 119°
2026-05-04 02:01 47.71289 17.66174 31102 ft 524 kts 119°
2026-05-04 02:02 47.67595 17.75507 31101 ft 524 kts 119°
2026-05-04 02:02 47.63894 17.84828 31092 ft 524 kts 119°
2026-05-04 02:03 47.60187 17.94129 31106 ft 524 kts 119°
2026-05-04 02:03 47.56471 18.03422 31111 ft 525 kts 119°
2026-05-04 02:04 47.52744 18.12710 31108 ft 525 kts 119°
2026-05-04 02:04 47.49034 18.21925 31117 ft 525 kts 119°
2026-05-04 02:05 47.45295 18.31179 31132 ft 524 kts 119°
2026-05-04 02:05 47.41552 18.40413 31121 ft 523 kts 119°
2026-05-04 02:06 47.37810 18.49613 31130 ft 522 kts 119°
2026-05-04 02:06 47.34064 18.58790 31149 ft 522 kts 119°
2026-05-04 02:07 47.30314 18.67947 31131 ft 521 kts 119°
2026-05-04 02:07 47.26560 18.77082 31145 ft 521 kts 119°
2026-05-04 02:08 47.22806 18.86189 31154 ft 521 kts 119°
2026-05-04 02:08 47.19041 18.95291 31147 ft 521 kts 119°
2026-05-04 02:09 47.15268 19.04382 31148 ft 521 kts 119°
2026-05-04 02:09 47.11515 19.13395 31148 ft 521 kts 119°
2026-05-04 02:10 47.07728 19.22459 31150 ft 521 kts 119°
2026-05-04 02:10 47.03932 19.31515 31159 ft 521 kts 119°
2026-05-04 02:11 47.00131 19.40553 31154 ft 521 kts 119°
2026-05-04 02:11 46.96324 19.49575 31148 ft 521 kts 119°
2026-05-04 02:12 46.92509 19.58588 31169 ft 521 kts 119°
2026-05-04 02:12 46.88686 19.67590 31159 ft 521 kts 119°
2026-05-04 02:13 46.84859 19.76572 31159 ft 521 kts 119°
2026-05-04 02:13 46.81021 19.85549 31160 ft 521 kts 119°
2026-05-04 02:14 46.77180 19.94505 31160 ft 521 kts 119°
2026-05-04 02:14 46.73331 20.03452 31151 ft 521 kts 119°
2026-05-04 02:15 46.69473 20.12388 31152 ft 520 kts 119°
2026-05-04 02:15 46.65611 20.21306 31150 ft 520 kts 119°
2026-05-04 02:16 46.61742 20.30212 31149 ft 521 kts 119°
2026-05-04 02:16 46.57867 20.39101 31148 ft 521 kts 119°
2026-05-04 02:17 46.54006 20.47933 31148 ft 521 kts 120°
2026-05-04 02:17 46.50110 20.56814 31164 ft 522 kts 120°
2026-05-04 02:18 46.46201 20.65700 31150 ft 522 kts 120°
2026-05-04 02:18 46.42289 20.74562 31146 ft 522 kts 120°
2026-05-04 02:19 46.38369 20.83412 31150 ft 522 kts 120°
2026-05-04 02:19 46.34444 20.92249 31166 ft 521 kts 120°
2026-05-04 02:20 46.30519 21.01062 31153 ft 521 kts 120°
2026-05-04 02:20 46.26621 21.09885 31153 ft 519 kts 117°
2026-05-04 02:21 46.23976 21.17620 31158 ft 515 kts 110°
2026-05-04 02:21 46.21100 21.27087 31165 ft 515 kts 110°
2026-05-04 02:22 46.18195 21.36523 31155 ft 514 kts 111°
2026-05-04 02:22 46.15259 21.45926 31160 ft 514 kts 111°
2026-05-04 02:23 46.12307 21.55307 31156 ft 514 kts 111°
2026-05-04 02:23 46.09347 21.64676 31162 ft 513 kts 111°
2026-05-04 02:24 46.06390 21.74011 31154 ft 512 kts 111°
2026-05-04 02:24 46.03433 21.83317 31166 ft 511 kts 111°
2026-05-04 02:25 46.00471 21.92605 31183 ft 510 kts 110°
2026-05-04 02:25 45.97525 22.01808 31167 ft 509 kts 110°
2026-05-04 02:26 45.94563 22.11028 31157 ft 508 kts 111°
2026-05-04 02:26 45.91596 22.20230 31172 ft 507 kts 111°
2026-05-04 02:27 45.88627 22.29406 31174 ft 507 kts 110°
2026-05-04 02:27 45.85655 22.38561 31171 ft 506 kts 110°
2026-05-04 02:28 45.82682 22.47690 31174 ft 505 kts 110°
2026-05-04 02:28 45.79700 22.56808 31188 ft 505 kts 111°
2026-05-04 02:29 45.76711 22.65914 31195 ft 505 kts 110°
2026-05-04 02:29 45.73716 22.75009 31187 ft 505 kts 110°
2026-05-04 02:30 45.70719 22.84082 31192 ft 504 kts 110°
2026-05-04 02:30 45.67717 22.93132 31221 ft 503 kts 110°
2026-05-04 02:31 45.64713 23.02166 31201 ft 503 kts 110°
2026-05-04 02:31 45.61706 23.11164 31212 ft 502 kts 110°
2026-05-04 02:32 45.58696 23.20151 31189 ft 502 kts 110°
2026-05-04 02:32 45.55681 23.29129 31196 ft 501 kts 110°
2026-05-04 02:33 45.52661 23.38082 31190 ft 501 kts 110°
2026-05-04 02:33 45.49636 23.47021 31190 ft 500 kts 110°
2026-05-04 02:34 45.46627 23.55879 31173 ft 500 kts 110°
2026-05-04 02:34 45.43596 23.64782 31169 ft 501 kts 110°
2026-05-04 02:35 45.40547 23.73701 31172 ft 502 kts 110°
2026-05-04 02:35 45.37483 23.82630 31175 ft 502 kts 110°
2026-05-04 02:36 45.34408 23.91566 31187 ft 504 kts 110°
2026-05-04 02:36 45.31321 24.00507 31172 ft 504 kts 110°
2026-05-04 02:37 45.28227 24.09438 31173 ft 503 kts 110°
2026-05-04 02:37 45.25130 24.18346 31173 ft 502 kts 110°
2026-05-04 02:38 45.22031 24.27221 31182 ft 502 kts 110°
2026-05-04 02:38 45.18931 24.36080 31173 ft 501 kts 110°
2026-05-04 02:39 45.15831 24.44911 31168 ft 500 kts 110°
2026-05-04 02:39 45.12734 24.53707 31205 ft 499 kts 110°
2026-05-04 02:40 45.09632 24.62485 31184 ft 498 kts 110°
2026-05-04 02:40 45.06524 24.71250 31171 ft 498 kts 110°
2026-05-04 02:41 45.03413 24.79998 31174 ft 498 kts 110°
2026-05-04 02:41 45.00292 24.88744 31190 ft 499 kts 111°
2026-05-04 02:42 44.97159 24.97498 31164 ft 499 kts 111°
2026-05-04 02:42 44.94018 25.06243 31158 ft 500 kts 111°
2026-05-04 02:43 44.90870 25.14979 31153 ft 496 kts 111°
2026-05-04 02:43 44.87723 25.23688 31164 ft 500 kts 113°
2026-05-04 02:44 44.84578 25.32362 31148 ft 500 kts 113°
2026-05-04 02:44 44.81407 25.41076 31146 ft 500 kts 113°
2026-05-04 02:45 44.78231 25.49779 31152 ft 499 kts 114°
2026-05-04 02:45 44.75052 25.58463 31135 ft 499 kts 114°
2026-05-04 02:46 44.71872 25.67123 31124 ft 498 kts 114°
2026-05-04 02:46 44.68686 25.75768 31118 ft 498 kts 114°
2026-05-04 02:47 44.65498 25.84400 31115 ft 498 kts 116°
2026-05-04 02:47 44.62297 25.93034 31105 ft 499 kts 116°
2026-05-04 02:48 44.59084 26.01669 31103 ft 500 kts 116°
2026-05-04 02:48 44.55860 26.10311 31107 ft 500 kts 117°
2026-05-04 02:49 44.52628 26.18952 31103 ft 500 kts 118°
2026-05-04 02:49 44.49388 26.27580 31109 ft 500 kts 118°
2026-05-04 02:50 44.46142 26.36199 31106 ft 500 kts 118°
2026-05-04 02:50 44.42896 26.44796 31124 ft 499 kts 119°
2026-05-04 02:51 44.39657 26.53345 31096 ft 496 kts 119°
2026-05-04 02:51 44.36427 26.61841 31090 ft 494 kts 119°
2026-05-04 02:52 44.33205 26.70291 31091 ft 492 kts 119°
2026-05-04 02:52 44.29984 26.78714 31092 ft 491 kts 119°
2026-05-04 02:53 44.26760 26.87120 31093 ft 492 kts 120°
2026-05-04 02:53 44.23525 26.95529 31094 ft 492 kts 120°
2026-05-04 02:54 44.20304 27.03875 31090 ft 491 kts 120°
2026-05-04 02:54 44.17068 27.12241 31081 ft 489 kts 120°
2026-05-04 02:55 44.12207 27.24754 31074 ft 486 kts 120°
2026-05-04 02:56 44.08985 27.33016 31080 ft 485 kts 120°
2026-05-04 02:56 44.05792 27.41181 31075 ft 483 kts 120°
2026-05-04 02:57 44.02582 27.49368 31072 ft 482 kts 120°
2026-05-04 02:57 43.99373 27.57527 31073 ft 481 kts 120°
2026-05-04 02:58 43.96159 27.65675 31067 ft 481 kts 119°
2026-05-04 02:58 43.92943 27.73804 31060 ft 481 kts 120°
2026-05-04 02:59 43.89716 27.81936 31060 ft 481 kts 120°
2026-05-04 02:59 43.86482 27.90066 31049 ft 482 kts 120°
2026-05-04 03:00 43.83234 27.98207 31042 ft 483 kts 120°
2026-05-04 03:00 43.79976 28.06347 31049 ft 483 kts 119°
2026-05-04 03:01 43.76712 28.14482 31036 ft 484 kts 119°
2026-05-04 03:01 43.73440 28.22613 31033 ft 484 kts 119°
2026-05-04 03:02 43.70166 28.30726 31036 ft 484 kts 120°
2026-05-04 03:02 43.66880 28.38844 31034 ft 484 kts 120°
2026-05-04 03:03 43.63591 28.46946 31040 ft 484 kts 120°
2026-05-04 03:03 43.60299 28.55035 31046 ft 483 kts 120°
2026-05-04 03:04 43.57000 28.63116 31050 ft 483 kts 120°
2026-05-04 03:04 43.53719 28.71132 31050 ft 483 kts 120°
2026-05-04 03:05 43.50411 28.79189 31042 ft 483 kts 120°
2026-05-04 03:05 43.47103 28.87225 31039 ft 482 kts 120°
2026-05-04 03:06 43.43796 28.95238 31040 ft 481 kts 120°
2026-05-04 03:06 43.40486 29.03233 31035 ft 481 kts 120°
2026-05-04 03:07 43.37180 29.11199 31028 ft 479 kts 119°
2026-05-04 03:07 43.33879 29.19130 31023 ft 477 kts 119°
2026-05-04 03:08 43.30586 29.27020 31021 ft 475 kts 119°
2026-05-04 03:08 43.27297 29.34881 31026 ft 475 kts 119°
2026-05-04 03:09 43.24005 29.42726 31016 ft 474 kts 119°
2026-05-04 03:09 43.21265 29.49237 31013 ft 474 kts 119°
2026-05-04 03:10 43.17964 29.57065 31012 ft 475 kts 119°
2026-05-04 03:10 43.14647 29.64908 31006 ft 476 kts 119°
2026-05-04 03:11 43.11322 29.72750 30997 ft 477 kts 119°
2026-05-04 03:11 43.07988 29.80593 31001 ft 477 kts 119°
2026-05-04 03:12 43.04640 29.88446 31002 ft 478 kts 119°
2026-05-04 03:12 43.01286 29.96292 30995 ft 478 kts 119°
2026-05-04 03:13 42.97925 30.04134 30990 ft 478 kts 119°
2026-05-04 03:13 42.94564 30.11956 30981 ft 478 kts 119°
2026-05-04 03:14 42.91218 30.19722 30981 ft 477 kts 119°
2026-05-04 03:14 42.87850 30.27518 30972 ft 477 kts 119°
2026-05-04 03:15 42.84484 30.35290 30969 ft 476 kts 119°
2026-05-04 03:15 42.81113 30.43054 30966 ft 475 kts 119°
2026-05-04 03:16 42.77746 30.50790 30964 ft 475 kts 119°
2026-05-04 03:16 42.74591 30.58651 30948 ft 472 kts 112°
2026-05-04 03:17 42.72375 30.67033 30949 ft 471 kts 104°
2026-05-04 03:17 42.70737 30.75641 30962 ft 470 kts 104°
2026-05-04 03:18 42.69083 30.84213 30938 ft 468 kts 104°
2026-05-04 03:18 42.67412 30.92747 30932 ft 466 kts 104°
2026-05-04 03:19 42.65733 31.01248 30934 ft 465 kts 104°
2026-05-04 03:19 42.64050 31.09731 30939 ft 465 kts 104°
2026-05-04 03:20 42.62364 31.18191 30923 ft 463 kts 104°
2026-05-04 03:20 42.60677 31.26626 30921 ft 463 kts 104°
2026-05-04 03:21 42.58986 31.35045 30921 ft 462 kts 104°
2026-05-04 03:21 42.57288 31.43470 30917 ft 462 kts 104°
2026-05-04 03:22 42.55585 31.51875 30903 ft 462 kts 104°
2026-05-04 03:22 42.53878 31.60268 30914 ft 462 kts 104°
2026-05-04 03:23 42.52165 31.68656 30911 ft 462 kts 104°
2026-05-04 03:23 42.50447 31.77038 30902 ft 461 kts 104°
2026-05-04 03:24 42.48722 31.85414 30889 ft 461 kts 104°
2026-05-04 03:24 42.46994 31.93773 30893 ft 461 kts 104°
2026-05-04 03:25 42.45260 32.02126 30886 ft 461 kts 104°
2026-05-04 03:25 42.43531 32.10423 30878 ft 460 kts 104°
2026-05-04 03:26 42.41789 32.18750 30882 ft 460 kts 104°
2026-05-04 03:26 42.40042 32.27066 30875 ft 459 kts 104°
2026-05-04 03:27 42.38290 32.35376 30868 ft 459 kts 104°
2026-05-04 03:27 42.36532 32.43679 30867 ft 459 kts 104°
2026-05-04 03:28 42.34770 32.51977 30854 ft 460 kts 104°
2026-05-04 03:28 42.33139 32.60323 30846 ft 458 kts 99°
2026-05-04 03:29 42.32200 32.68836 30848 ft 458 kts 97°
2026-05-04 03:29 42.31251 32.77355 30837 ft 459 kts 97°
2026-05-04 03:30 42.30278 32.85874 30835 ft 459 kts 97°
2026-05-04 03:30 42.29296 32.94391 30833 ft 459 kts 97°
2026-05-04 03:31 42.28308 33.02905 30836 ft 459 kts 98°
2026-05-04 03:31 42.27313 33.11425 30832 ft 459 kts 97°
2026-05-04 03:32 42.26312 33.19945 30824 ft 459 kts 97°
2026-05-04 03:32 42.25306 33.28459 30819 ft 459 kts 97°
2026-05-04 03:33 42.24300 33.36911 30809 ft 459 kts 97°
2026-05-04 03:33 42.23273 33.45482 30812 ft 460 kts 97°
2026-05-04 03:34 42.22252 33.53955 30806 ft 461 kts 97°
2026-05-04 03:34 42.21207 33.62566 30811 ft 462 kts 97°
2026-05-04 03:35 42.20168 33.71074 30807 ft 463 kts 97°
2026-05-04 03:35 42.19115 33.79653 30803 ft 464 kts 97°
2026-05-04 03:36 42.18052 33.88245 30803 ft 465 kts 97°
2026-05-04 03:36 42.16982 33.96849 30805 ft 465 kts 97°
2026-05-04 03:37 42.15907 34.05449 30802 ft 465 kts 97°
2026-05-04 03:37 42.14827 34.14043 30808 ft 465 kts 98°
2026-05-04 03:38 42.13739 34.22648 30797 ft 466 kts 98°
2026-05-04 03:38 42.12642 34.31266 30765 ft 467 kts 98°
2026-05-04 03:39 42.11540 34.39881 30789 ft 467 kts 98°
2026-05-04 03:39 42.10405 34.48502 30794 ft 468 kts 99°
2026-05-04 03:40 42.09205 34.57130 30791 ft 470 kts 100°
2026-05-04 03:40 42.07994 34.65806 30800 ft 472 kts 100°
2026-05-04 03:41 42.06782 34.74507 30795 ft 474 kts 100°